Location: Lake Almanor
(40.2485°N, 121.1442°W)
Time: 17:58:27
(UTC-08:00)

N. Korean satellite - Pass Details

Date: 27 January 2020
Orbit: 456 x 505 km, 97.2° (Epoch: 21 February)

Event Time Altitude Azimuth Distance (km) Brightness Sun altitude
Rises 04:45:12 0° 36° (NE) 2,551 10.7 -29.2°
Reaches altitude 10° 04:48:34 10° 71° (ENE) 1,678 10.1 -28.6°
Maximum altitude 04:49:50 12° 92° (E) 1,586 10.1 -28.3°
Drops below altitude 10° 04:51:07 10° 112° (ESE) 1,682 10.1 -28.1°
Sets 04:54:29 0° 147° (SSE) 2,569 10.7 -27.4°
